星链-34646 (STARLINK-34646)

导读

STARLINK-34646是美国于2025年7月16日发射的星链系列卫星,归属SpaceX公司的星链星座组网项目。星链系统旨在构建全球卫星互联网,为全球偏远地区等提供低延迟、高速率的网络接入服务,该卫星入轨后将进一步扩充星链星座规模,推进全球覆盖的组网进程,增强系统服务能力。

Basic Information
目录编号:
64796
目录名称:
STARLINK-34646
国际标识:
2025-150G
轨道中心:
EARTH
卫星名称:
星链-34646
卫星全名:
星链-34646 (STARLINK-34646)
卫星状态:
在轨 (已飞行415 天)
发射日期:
2025-07-16 UTC
国别 :
美国 (US)
星等 :
--
Orbit Information
数据来源 国际轨道数据 AOE轨道数据
星历时间 2026-09-04T17:35:17+0800
11小时前
查看轨道信息
2026-09-03T15:00:00+0800
1天前
查看轨道信息
半长轴 6950.178km 6950.195km
偏心率 0.000315 0.0003702
轨道倾角 70.002° 70.000°
近地点辐角 267.163° 272.822°
升交点赤经 43.945° 46.739°
平近点角 92.917° 233.279°
近地点 569.851km 569.485km
远地点 574.231km 574.631km
周期 96.107分钟 96.107分钟
每日圈数 14.98335 14.983296
Detailed Information
固有亮度:
5
最大亮度:
2.5
卫星平台:
Starlink V1.0
覆盖范围:
全球
运营商:
太空探索技术公司
运营商所在国:
美国
制造商(研发单位):
太空探索技术公司
制造商所在国:
美国
使用方式:
暂无
Satellite Introduction
Starlink 计划是 SpaceX 推出的全球卫星互联网项目,通过发射低轨道卫星,为全球尤其是偏远地区提供高速、低延迟的互联网服务。自 2019 年起,Starlink 已部署数千颗卫星,旨在缩小全球数字鸿沟,推动互联网普及。该项目还为军事、航空等行业提供通信支持,带来广泛经济效益。
2D Orbit Map
3D Orbit Map
Orbit Altitude Analysis Chart
Orbit Inclination Analysis Chart
Orbit Comprehensive Analysis Chart
View Comprehensive Chart
Conjunction Data List
Event ID Objects TCA Miss Dist (km) Collision Risk Probability Collision Risk Index (CRI) Action
CDM_260905-123106-479606-682021
2026-09-05T
12:31:52+0000
1.027 km
极远距离
2.466407E-5 中风险 0.63
CDM_260903-033704-003706-479625
2026-09-03T
03:37:52+0000
1.719 km
极远距离
4.331226E-6 低风险 0.48
CDM_260907-052006-479606-665821
COSMIC (66658)
2026-09-07T
05:20:19+0000
1.819 km
极远距离
3.613133E-6 低风险 0.46